Temp_Advection
nan nan nan nan nan nan nan nan nan nan nan nan nan nan nan nan nan nan nan nan nan nan nan nan nan nan nan nan nan nan nan nan nan nan nan nan nan nan nan nan nan nan nan nan nan nan nan nan nan nan nan nan nan nan nan nan nan nan nan nan nan nan nan nan nan nan nan nan nan
nan 0 0 0 0 0 0 0 0 0 -0 -0 -0 -1 -1 -0 -1 -1 -1 -1 -1 -1 -1 -0 -0 -0 -1 -1 -1 -1 -1 -0 0 0 0 0 0 0 0 -0 -0 -0 -0 -0 -0 0 0 0 0 0 0 0 -0 -0 -1 -1 -1 -0 0 0 0 0 0 0 0 0 -0 -0 nan
nan -0 0 0 0 0 0 0 0 0 0 0 0 -0 0 -0 -0 -0 -1 -1 -0 -0 -0 -0 -0 -0 -1 -1 -1 -0 -0 0 0 0 0 0 0 0 -0 -0 -0 -0 -0 -0 -0 -0 -0 -0 0 0 0 0 -0 -1 -1 -0 -0 0 0 0 0 0 0 0 0 0 -0 -0 nan
nan -0 -0 0 0 -0 -0 -0 -0 -0 -0 -0 0 0 0 0 0 -0 -0 -0 -0 -0 -1 -1 -1 -1 -0 -0 -0 0 0 0 0 0 -0 -0 -0 -0 -0 -0 -0 -0 0 0 0 -0 -0 -0 0 0 0 -0 -0 -0 -0 -0 0 0 0 0 0 0 0 0 0 0 -0 -0 nan
nan 0 0 -0 0 0 0 -0 -0 -0 -0 -0 -0 0 0 0 0 0 -0 -0 -1 -1 -1 -1 -1 -0 0 0 0 0 1 1 0 0 -0 -0 -0 -0 -0 -0 0 0 0 0 0 0 0 0 0 0 0 -0 -0 0 0 -0 0 0 0 0 0 0 0 0 0 -0 -0 -0 nan
nan 0 0 0 0 0 0 0 0 -0 -0 -0 -0 -0 -0 -0 -0 -0 -0 -1 -1 -1 -0 -0 -0 0 0 1 1 1 0 0 0 0 -0 -0 -0 -0 0 0 0 0 0 0 -0 -0 0 0 0 0 0 -0 -0 -0 -0 -0 0 0 0 0 0 0 0 0 -0 -0 -0 -0 nan
nan 0 0 0 0 0 0 0 0 -0 -0 -0 -0 -0 -1 -1 -1 -1 -1 -1 -1 -0 -0 0 0 0 0 1 1 1 0 0 0 0 0 -0 0 0 0 0 0 -0 -0 -0 -0 -0 -0 -0 -0 -0 -0 -0 -0 -0 -0 -0 0 0 0 0 0 0 -0 -0 -0 -0 -0 -0 nan
nan -0 -0 -0 0 0 0 -0 -0 -0 -0 -0 -0 -0 -1 -1 -1 -1 -1 -0 -0 -0 -0 0 0 0 0 0 0 0 0 0 0 0 0 0 0 0 0 -0 -0 -0 -0 -0 0 -0 -0 -0 -0 -0 -0 -1 -1 -0 -0 -0 0 0 0 0 0 -0 -0 -0 -0 -0 -0 -0 nan
nan -0 -0 -0 -0 -0 -0 -0 -0 -0 -0 -0 -1 -1 -1 -1 -1 -1 -1 -0 -0 0 0 0 1 1 1 0 0 -0 0 0 0 0 0 0 0 -0 -0 -0 -0 -0 -0 0 0 0 -0 -0 -0 -0 -0 -0 -0 -0 0 0 0 0 0 -0 -0 -0 -0 -0 -0 -0 0 0 nan
nan -0 -0 -0 -0 -0 -0 -0 -0 -0 -0 -1 -1 -1 -1 -1 -1 -1 -1 -0 0 0 1 0 1 1 1 0 0 0 0 0 0 0 -0 -0 -0 -0 -0 -0 -0 -0 0 0 0 0 0 -0 -0 -0 -0 0 0 0 0 0 0 -0 -0 -0 -0 -0 -0 -0 0 0 0 0 nan
nan -0 -0 -0 -0 -0 -0 -0 -0 -0 -0 -1 -1 -1 -1 -1 -1 -0 -0 0 0 0 0 1 1 1 1 0 0 0 1 0 0 0 -0 -0 -0 -0 -0 -0 0 0 0 0 0 0 0 -0 -0 -0 0 0 0 0 0 0 0 -0 -0 0 -0 -0 -0 0 0 0 0 0 nan
nan -0 -0 -0 -0 -0 -0 0 0 0 -0 -0 -1 -0 -0 -0 -0 -0 -0 0 0 0 0 1 1 1 0 0 1 1 1 0 0 -0 -0 -0 -0 -0 -0 0 0 0 0 0 0 0 -0 -0 -0 0 0 0 0 0 0 0 -0 -0 0 0 -0 0 0 0 1 0 0 0 nan
nan 0 0 0 0 0 0 0 0 0 0 -0 -0 -0 -0 -0 -0 -0 0 -0 -0 -0 0 1 1 1 1 0 0 0 0 -0 -1 -1 -1 -0 -0 -0 0 0 0 0 0 -0 -0 -0 -0 -0 -0 0 0 0 0 0 0 -0 -0 -0 0 0 0 0 1 1 0 0 0 -0 nan
nan 0 0 0 0 0 0 0 0 0 0 0 0 -0 -0 0 0 0 0 -0 0 0 0 0 1 1 1 0 -0 -1 -1 -1 -1 -1 -1 -0 -0 0 1 1 0 0 -0 -0 -0 -0 -0 -0 0 0 0 0 0 0 0 0 -0 0 0 0 0 1 0 0 0 0 -0 -0 nan
nan 0 0 0 0 0 0 0 0 0 1 1 0 0 0 0 0 0 0 0 1 0 0 0 0 0 0 -0 -1 -2 -2 -1 -1 -1 -0 0 0 1 1 0 0 0 -0 -0 -0 0 0 0 0 0 0 -0 0 0 0 0 0 0 0 1 1 0 0 0 -0 -0 -0 -0 nan
nan 0 0 0 0 0 0 0 0 0 1 1 1 1 0 0 1 1 1 1 1 1 0 -0 -1 -1 -1 -1 -1 -1 -1 -0 0 0 1 1 1 1 1 0 0 0 0 0 0 0 0 0 0 0 -0 -0 -0 -0 -0 -0 0 0 0 0 0 0 0 -0 -0 -0 -0 -0 nan
nan -0 -0 -0 -0 0 0 0 0 0 1 1 1 1 1 0 1 1 1 1 -0 -1 -1 -1 -2 -2 -2 -1 -1 -0 0 1 1 1 1 1 1 1 0 0 0 0 0 0 0 0 0 0 0 -0 -0 -0 -0 -0 -0 -0 0 0 0 0 0 -0 -0 -0 -0 -0 -0 -0 nan
nan -0 -0 -0 -0 0 0 0 0 0 0 1 1 1 1 1 0 0 0 0 -1 -2 -2 -2 -1 -1 -1 -1 0 1 1 1 1 1 1 1 1 0 0 0 0 0 0 0 0 0 -0 -0 -0 -0 -0 -0 -0 -0 -0 0 0 0 0 0 -0 -0 -0 -0 -0 -0 0 -0 nan
nan -0 0 0 0 0 0 0 0 0 0 1 1 1 1 1 0 -1 -1 -1 -1 -1 -1 -1 -1 -0 0 0 0 1 1 1 1 1 1 1 0 0 0 0 0 0 0 0 0 -0 -0 -0 -0 -0 -0 -0 -0 -0 0 0 0 0 0 0 -0 -0 -0 -0 -0 -0 -0 -0 nan
nan 0 0 0 0 0 1 1 1 1 1 1 1 1 0 0 -0 -1 -1 -1 -0 -0 0 -0 -0 0 0 0 0 1 1 1 1 1 0 0 0 0 0 0 0 0 0 0 0 -0 -0 -0 -0 -0 -0 -0 0 0 0 0 0 0 0 -0 -0 -0 -0 -0 0 -0 -0 -0 nan
nan 0 0 0 0 0 1 1 1 1 1 1 0 -0 -0 -1 -0 -1 -1 -1 -0 0 1 0 0 0 0 0 0 0 0 1 1 0 0 0 0 0 0 0 0 0 0 0 0 -0 -0 -0 0 0 -0 0 0 0 0 0 0 0 -0 -0 -0 -0 -0 0 -0 -0 -0 0 nan
nan 0 0 0 0 0 0 1 1 1 1 1 0 -0 -1 -1 -1 -1 -0 -0 0 0 1 1 0 0 0 0 0 0 0 0 0 0 0 0 0 0 0 0 0 0 0 0 0 0 0 0 0 0 0 0 0 0 0 0 0 0 -0 -0 -0 -0 0 0 -0 -0 0 0 nan
nan -0 0 0 0 0 0 1 1 1 1 0 -0 -1 -1 -0 -1 -0 -0 0 0 0 0 0 0 0 0 0 0 0 -0 -0 0 0 0 0 0 0 0 0 0 0 0 0 0 0 0 0 0 0 0 0 0 0 0 0 0 0 -0 -0 0 0 0 -0 -0 0 -0 -0 nan
nan -0 0 0 0 1 0 1 1 1 0 -0 -1 -0 -0 -0 -0 0 0 1 0 0 0 0 0 0 0 0 1 0 0 0 -0 0 0 0 0 0 0 0 0 0 0 0 1 1 0 0 0 -0 0 0 0 0 0 0 0 0 0 0 0 0 -0 -0 -0 0 0 -0 nan
nan 0 0 0 1 1 1 1 1 0 -0 -1 -0 0 0 0 0 0 0 0 0 0 0 0 0 0 0 0 0 1 1 0 0 0 0 0 0 0 0 0 0 0 0 0 0 1 1 0 0 0 -0 0 0 -0 -0 -0 0 0 0 0 0 -0 -0 -0 -0 -0 -0 -0 nan
nan -0 0 0 1 1 1 1 0 -0 -1 -0 0 1 0 0 0 0 0 0 0 0 0 0 -0 -0 0 0 0 0 0 1 1 0 0 0 0 0 0 0 0 0 0 0 0 0 0 1 1 0 0 0 -0 -0 -0 -0 -0 0 0 0 0 0 0 -0 -0 -0 -0 -0 nan
nan -0 -0 0 0 1 1 1 0 -0 -0 0 0 0 0 0 0 0 0 0 0 0 0 0 -0 -0 -0 0 0 0 0 0 1 1 1 0 0 0 0 0 0 0 -0 -0 -0 0 0 0 1 1 1 0 0 -0 -0 -0 -0 -0 -0 -0 -0 0 0 0 -0 -0 -0 -0 nan
nan -0 -0 -0 -0 0 0 0 -0 -0 -0 0 0 0 0 0 0 0 0 0 0 -0 -0 -0 -0 -0 -0 0 0 0 0 0 1 1 0 0 0 0 -0 -0 -0 -0 0 -0 0 0 0 1 1 1 1 0 0 0 0 0 -0 -0 -0 -0 -0 -0 0 0 0 0 -0 -0 nan
nan -0 -0 -0 -0 0 0 0 -0 -0 0 1 0 0 0 0 0 0 0 0 -0 -0 -0 -0 -0 -0 -0 0 0 1 1 1 0 0 0 0 0 0 0 -0 -0 -0 0 0 0 0 1 1 1 1 0 0 0 0 0 0 -0 -0 -0 -0 -0 -0 -0 0 0 0 -0 -0 nan
nan -0 -0 -0 -0 0 0 -0 -0 -0 0 0 0 0 0 0 0 0 0 0 0 0 0 0 -0 0 0 0 0 0 0 0 0 0 0 -0 -0 -0 -0 -0 -0 -0 0 0 0 1 1 1 0 0 0 0 0 0 0 0 0 -0 -0 -0 -0 -0 0 0 0 -0 -0 -0 nan
nan -0 -0 0 0 0 0 -0 -0 0 0 0 0 0 0 0 0 1 0 0 0 0 0 0 0 0 0 0 0 0 0 0 0 0 0 -0 -0 -0 -0 -0 -0 0 0 0 1 1 1 0 0 0 0 0 0 0 0 0 0 0 0 0 -0 0 0 0 0 0 -0 -0 nan
nan -0 -0 0 0 0 0 0 0 0 0 -0 -0 0 0 0 0 1 1 1 1 0 0 0 0 0 0 0 0 0 0 0 0 0 0 0 -0 -0 -0 -0 0 0 0 0 0 0 0 0 0 0 0 0 0 0 0 -0 0 0 0 0 0 0 0 0 0 -0 -0 -0 nan
nan -0 -0 0 0 -0 -0 -0 0 0 0 0 0 0 0 0 1 0 1 1 1 1 1 1 1 0 0 -0 -0 0 0 -0 -0 -0 0 0 0 0 -0 0 0 0 0 0 0 0 0 0 0 0 0 0 -0 -0 -0 -0 0 0 0 0 0 0 0 0 0 0 -0 -0 nan
nan -0 -0 0 0 -0 -0 -0 0 0 0 0 0 1 1 1 0 0 0 1 1 1 1 1 1 1 0 -0 -0 -0 -0 -0 -0 -0 0 0 0 0 0 -0 -0 0 0 0 0 0 0 -0 -0 -0 -0 -0 -0 -0 -0 0 0 0 0 -0 -0 -0 -0 0 0 0 0 -0 nan
nan -1 -0 -0 -0 -0 -1 -0 0 0 0 0 0 1 1 1 1 1 0 0 0 1 1 1 1 1 0 0 0 -0 -0 -1 -0 -0 -0 -0 0 0 0 -0 -0 -0 -0 -0 -0 0 -0 -0 -0 -0 -0 -0 -0 -0 0 0 0 0 0 0 -0 -0 -0 -0 0 0 -0 -0 nan
nan -1 -1 -1 -1 -1 -1 -0 -0 0 0 0 0 0 0 1 1 1 1 0 0 0 0 0 1 1 0 0 0 0 0 -0 -0 -0 -0 0 0 0 -0 -0 -0 -0 -0 -0 -0 0 0 -0 -0 -0 -0 -0 -0 0 0 0 0 0 0 0 -0 -0 -0 -0 -0 -0 -0 -0 nan
nan -1 -1 -1 -1 -1 -1 -0 -0 0 0 0 0 0 -0 0 0 1 1 0 0 0 0 0 0 0 0 -0 -0 0 0 0 0 -0 -0 -0 0 0 -0 -0 -0 -0 -0 -0 0 0 0 -0 0 0 0 0 0 0 0 0 0 0 0 0 -0 -0 -0 -0 -0 -0 -0 -0 nan
nan -0 -1 -1 -1 -1 -0 -0 0 -0 -0 -0 0 1 0 0 0 0 0 1 0 -0 -0 0 0 0 0 -0 -0 -0 0 1 1 0 -0 -0 0 0 0 -0 -0 -0 -0 -0 0 0 0 0 0 0 0 0 0 0 0 0 -0 -0 -0 -0 -0 -0 -0 -0 -0 -0 -0 -0 nan
nan 0 -0 -1 -1 -0 -0 0 0 -0 -0 -0 0 1 1 1 1 0 0 0 0 0 -0 -0 -0 -0 0 0 -0 -0 0 1 1 1 1 0 0 0 0 0 -0 -0 -0 -0 -0 0 0 0 0 0 0 1 1 0 0 0 -0 -0 -0 -0 -0 -0 -0 -0 -0 -0 -0 -0 nan
nan -0 -0 -0 -0 -0 -0 0 0 0 -0 -0 0 0 1 1 0 0 0 0 0 0 -0 -1 -1 -1 -0 0 -0 -0 0 1 1 1 1 1 1 1 1 1 0 -0 -0 -0 -0 -0 0 0 0 0 0 1 1 0 0 0 0 -0 -0 -0 -0 -0 -0 -0 -0 -0 -0 -0 nan
nan nan nan nan nan nan nan nan nan nan nan nan nan nan nan nan nan nan nan nan nan nan nan nan nan nan nan nan nan nan nan nan nan nan nan nan nan nan nan nan nan nan nan nan nan nan nan nan nan nan nan nan nan nan nan nan nan nan nan nan nan nan nan nan nan nan nan nan nan
Wind_Speed
28 28 28 28 27 27 27 27 27 27 27 27 26 26 26 26 27 28 29 29 28 28 27 26 26 27 28 29 28 27 26 25 23 22 21 20 20 19 18 18 18 17 17 17 17 16 16 15 14 14 14 15 16 17 16 15 14 12 11 10 10 9 8 7 6 6 7 8 8
28 28 28 28 27 27 27 27 27 27 27 26 25 24 24 24 25 26 27 28 28 27 26 25 25 26 27 28 28 27 25 24 23 22 22 21 20 19 19 18 18 17 17 17 17 16 16 16 16 17 18 18 18 17 16 14 12 11 10 9 9 8 8 7 7 8 9 9 8
28 28 28 28 28 28 28 27 27 27 26 25 24 23 22 22 23 24 25 26 27 26 25 25 25 26 26 27 27 26 25 24 23 23 22 21 20 20 19 19 17 16 16 16 16 16 17 17 18 19 19 19 17 16 14 12 11 10 10 9 8 8 8 8 8 9 9 8 7
28 28 28 28 28 28 28 28 28 27 26 25 23 22 22 21 22 22 24 25 26 25 25 24 24 25 25 26 26 25 24 23 23 23 23 22 21 20 19 18 17 16 15 16 16 17 17 18 18 18 18 17 15 14 12 11 10 9 9 8 8 7 7 7 8 8 8 8 8
28 28 28 28 27 27 27 28 28 27 26 24 24 23 22 21 21 22 23 24 25 25 24 24 24 24 24 25 25 25 24 24 24 23 23 22 21 20 19 18 16 16 15 16 16 17 18 18 18 17 16 15 14 12 11 10 10 9 9 8 8 7 7 7 8 8 8 8 8
28 28 28 27 26 26 27 27 27 27 26 25 24 23 23 22 22 22 23 24 24 24 23 23 23 23 24 24 25 25 25 24 24 24 23 23 22 21 19 18 17 16 16 17 17 18 18 19 18 17 16 14 13 12 12 11 10 10 9 9 8 7 7 7 8 8 8 9 9
28 28 27 26 26 26 27 27 27 27 26 25 24 24 23 23 22 22 23 23 23 23 22 22 22 23 23 24 25 25 25 24 24 24 23 23 22 21 20 19 18 18 18 18 18 19 19 19 18 17 16 15 15 15 15 14 13 12 11 10 9 8 7 7 8 8 9 9 9
27 27 27 26 26 26 27 27 27 27 26 25 25 24 24 23 23 22 22 22 22 22 22 22 22 22 23 24 25 25 25 24 24 23 23 23 23 22 21 20 20 20 20 20 19 19 19 19 18 18 17 16 16 17 17 16 15 14 13 12 11 9 8 8 8 8 9 9 8
27 27 27 26 26 27 27 28 27 27 26 26 25 24 23 23 23 22 22 22 22 22 22 22 21 21 22 23 24 25 24 24 24 24 24 23 23 23 22 21 20 20 20 20 20 20 19 19 18 17 16 16 15 15 15 15 16 15 14 13 12 11 9 8 8 9 8 8 7
28 28 27 27 27 27 28 28 27 27 26 26 25 24 23 23 22 22 22 22 22 22 22 22 21 21 22 23 24 24 24 24 24 24 24 24 23 22 22 21 20 19 18 18 19 19 20 19 17 16 15 14 12 11 11 12 13 14 14 14 13 12 10 9 9 9 8 7 6
28 28 28 28 28 28 28 28 27 26 26 26 25 24 23 22 22 22 22 22 22 22 22 22 22 22 22 23 23 24 24 24 24 24 24 24 23 22 21 19 18 16 15 15 16 18 19 18 16 14 13 12 10 9 9 10 10 12 13 14 13 12 11 10 9 8 7 6 4
29 28 28 28 28 28 28 27 27 26 26 26 25 24 23 22 22 22 22 23 23 23 23 22 22 22 23 23 23 23 24 24 24 24 24 24 23 22 21 19 16 14 13 13 15 17 17 16 14 13 12 11 10 9 9 9 10 11 12 12 11 10 10 10 9 7 6 4 2
29 28 28 28 28 28 28 27 27 27 26 26 25 24 24 23 23 23 23 23 23 23 23 22 22 23 23 24 24 24 24 24 25 25 25 24 24 22 20 18 15 13 13 13 14 15 15 15 13 12 11 11 10 10 9 9 10 11 11 10 10 10 10 9 7 6 4 3 2
29 28 28 28 28 28 28 28 27 27 27 26 26 25 25 24 24 24 23 23 23 23 23 22 22 23 23 24 24 24 25 25 25 25 25 24 24 22 19 17 15 14 13 13 14 14 14 14 13 12 11 11 11 10 10 10 11 11 11 10 10 9 8 7 5 4 3 2 2
29 29 29 29 29 28 28 28 28 28 28 27 27 27 26 26 25 24 24 23 23 23 23 23 24 24 24 24 24 24 24 24 24 24 24 24 23 20 18 16 15 14 14 14 14 14 14 14 13 12 11 11 11 11 12 12 11 11 11 10 9 7 6 5 4 4 3 2 2
29 29 29 29 29 29 29 29 29 29 29 29 29 28 28 27 26 25 24 24 24 24 24 25 25 25 25 24 23 23 22 22 22 23 23 22 21 19 17 16 16 15 15 14 14 15 15 14 13 12 11 11 11 12 13 12 12 12 11 10 8 6 5 5 4 4 3 2 2
30 30 30 30 30 30 29 29 29 30 30 30 30 29 29 28 27 26 25 25 25 26 26 26 25 25 24 23 22 21 20 20 21 21 21 20 19 18 17 17 16 16 15 15 14 15 15 14 13 12 11 11 11 12 13 13 12 12 11 9 7 6 5 5 4 4 3 2 2
31 31 31 31 31 30 30 30 30 31 31 31 30 30 29 28 28 27 27 27 27 27 26 26 24 22 21 21 20 19 19 20 20 20 20 19 18 17 17 17 17 16 15 14 14 14 15 14 13 12 11 11 12 13 13 13 13 12 11 9 8 7 6 5 4 3 3 2 2
31 32 32 32 31 30 30 30 31 31 31 31 31 30 29 29 29 29 29 28 27 26 25 24 22 21 19 19 19 19 19 19 19 19 19 18 17 17 17 17 16 15 14 14 14 14 14 13 12 12 12 12 12 12 13 13 13 13 11 10 9 7 6 5 4 3 3 2 2
32 32 33 32 31 31 31 31 31 32 32 32 31 31 30 30 30 30 29 28 27 25 23 21 20 20 19 19 19 19 19 19 19 19 18 18 18 17 17 16 16 15 15 15 15 14 14 13 13 12 12 12 12 12 13 14 14 13 12 10 9 8 6 5 4 4 3 3 3
31 32 32 32 31 31 31 31 32 33 33 32 32 32 31 31 30 30 28 27 25 24 22 19 19 19 19 19 19 20 20 20 19 19 19 18 18 18 17 16 16 15 15 15 15 15 14 14 14 13 13 12 12 13 13 14 14 13 11 10 9 7 6 5 4 4 4 4 3
31 32 32 32 31 31 31 32 33 33 33 33 33 33 32 31 30 29 27 25 24 23 21 19 19 19 19 19 19 20 20 20 20 19 19 19 18 18 17 17 16 16 16 16 15 15 15 15 15 14 14 13 13 14 14 13 13 12 11 9 8 7 6 6 5 5 5 4 4
31 31 32 32 31 31 32 32 33 33 34 34 33 33 32 31 29 28 26 25 24 23 21 20 19 18 18 18 18 19 19 20 20 20 19 19 19 18 18 18 17 17 16 16 16 16 16 16 16 15 15 14 14 14 14 13 12 11 10 8 8 7 7 6 6 6 5 5 4
30 31 31 31 31 31 32 33 33 34 34 34 33 32 31 30 28 27 26 25 24 23 21 20 19 18 18 18 17 17 18 19 20 20 20 19 19 18 18 18 18 17 17 17 17 17 16 16 16 15 15 15 14 14 13 12 11 10 9 8 8 7 7 7 7 6 6 5 5
30 31 31 31 31 31 32 33 33 34 34 34 33 32 31 29 28 27 26 25 24 22 21 19 18 18 18 17 17 16 16 18 19 20 20 20 19 18 18 19 19 18 18 18 17 16 16 15 15 15 15 15 15 14 13 12 11 10 9 8 8 8 8 8 7 6 6 5 6
31 31 31 31 31 31 32 33 34 34 34 33 32 31 30 29 27 27 26 25 23 22 20 19 18 18 17 17 17 17 17 18 19 20 20 20 19 19 19 20 20 19 19 18 17 16 15 15 14 14 14 14 14 14 13 12 11 10 9 9 8 8 7 7 7 7 6 6 6
31 31 31 30 30 31 31 33 33 34 33 32 32 31 30 29 28 27 26 25 23 22 20 19 18 18 18 17 17 18 19 19 20 20 20 19 19 20 20 21 20 20 19 18 18 17 16 16 15 14 13 13 13 12 12 12 11 11 10 10 9 8 7 6 6 6 6 7 7
31 31 30 30 30 30 31 32 33 33 33 32 32 31 30 29 28 26 25 24 24 22 21 20 19 18 18 18 18 19 20 20 21 20 20 19 19 20 21 21 21 20 19 19 18 18 17 16 15 14 13 13 12 11 11 11 11 11 11 10 9 8 7 6 6 6 7 7 8
31 30 30 29 29 30 31 32 33 33 32 32 31 31 30 29 27 26 25 25 24 23 22 21 20 19 19 19 20 20 21 21 21 21 20 20 20 20 21 21 21 21 20 19 19 18 17 16 15 14 13 12 12 11 11 11 11 12 11 10 9 8 8 7 7 7 7 7 8
30 30 29 29 29 30 31 32 32 32 32 32 32 31 30 28 27 26 26 25 24 24 23 22 21 20 20 20 21 21 22 22 22 21 21 21 21 22 22 22 22 21 21 20 20 19 18 17 16 14 13 12 12 12 12 12 12 11 11 10 9 9 8 8 8 8 8 8 8
30 30 30 30 30 30 31 32 32 33 33 32 31 31 30 29 28 27 26 26 25 24 23 22 21 20 20 20 21 23 23 23 22 21 21 21 22 23 23 23 23 22 22 21 20 19 18 17 16 15 14 13 12 12 12 12 12 11 11 10 9 9 9 8 8 9 9 9 9
30 30 30 30 30 31 31 32 33 33 33 32 31 30 30 29 28 27 27 26 25 24 23 22 21 21 21 21 23 24 24 23 22 22 21 22 23 24 25 24 23 23 22 21 20 19 18 17 16 15 14 14 13 13 12 12 12 11 11 10 10 9 9 9 10 10 9 9 9
32 31 31 30 30 31 32 33 33 33 33 32 31 31 30 29 29 28 27 26 26 25 23 22 21 21 21 22 24 25 25 24 22 22 22 23 25 25 26 25 24 23 22 21 20 19 18 17 16 16 15 14 14 13 13 12 12 11 11 10 10 10 10 10 10 10 10 10 10
33 33 32 31 31 32 33 33 33 33 32 32 31 31 30 30 29 29 28 27 26 24 23 22 21 21 21 22 25 26 25 24 23 23 23 25 26 26 26 25 24 23 22 22 20 19 18 17 17 16 15 15 14 13 13 12 11 11 11 11 11 11 11 11 10 10 10 10 10
34 34 33 32 32 33 33 34 33 33 32 32 31 31 30 30 29 29 28 27 26 25 23 22 21 21 21 23 25 26 25 24 23 24 25 26 26 26 26 25 24 23 22 21 20 19 18 17 16 16 15 14 14 13 12 12 11 11 11 11 11 11 11 11 11 10 10 10 10
35 36 35 34 33 33 34 34 34 33 32 32 31 31 30 30 29 29 28 27 26 25 24 23 22 22 23 25 26 26 24 24 24 25 26 26 26 26 25 24 24 23 22 21 20 19 18 17 16 15 15 14 14 13 12 12 11 11 11 12 12 12 12 11 11 11 10 11 11
36 36 36 35 35 34 34 34 33 33 32 32 32 31 31 30 30 29 28 27 26 25 24 23 23 23 24 26 26 26 25 24 24 25 26 26 26 25 24 24 24 23 22 21 19 18 17 16 15 15 14 14 13 13 12 12 12 12 12 12 12 12 12 11 11 11 11 11 11
36 37 37 36 36 35 34 34 33 33 32 32 32 32 31 31 30 29 28 26 25 25 25 24 24 24 25 26 27 26 26 25 25 26 26 26 25 24 23 23 23 23 21 20 19 18 16 16 15 14 14 13 13 12 12 12 12 12 12 12 12 12 12 11 11 11 11 11 11
35 36 36 36 36 35 34 34 33 33 32 32 32 32 32 31 30 29 28 26 25 25 24 24 24 24 25 26 27 28 28 28 27 27 26 25 24 23 22 22 22 22 21 20 18 17 16 16 15 14 13 12 12 11 11 11 12 12 12 12 12 12 12 11 11 11 11 11 11
34 35 35 35 35 34 34 33 33 32 32 32 32 32 32 31 30 29 28 27 25 25 24 24 24 25 26 27 28 29 29 30 29 28 27 26 24 23 22 21 21 21 21 19 18 17 17 16 15 15 13 12 11 11 10 10 11 11 11 12 12 12 12 12 11 11 11 11 11
33 33 34 34 33 33 33 33 33 32 32 32 32 32 32 32 31 30 29 28 27 25 24 23 23 24 26 27 29 30 31 31 31 30 28 26 25 23 22 21 21 20 20 19 18 18 17 16 15 14 13 12 11 10 10 10 10 10 11 11 11 11 12 12 12 11 11 11 11
Wind_Direction
156 158 159 160 160 160 159 159 159 159 160 163 167 172 175 178 178 179 180 182 182 183 183 183 182 181 181 182 184 186 187 186 185 184 184 184 182 182 184 187 188 187 184 182 184 184 184 183 182 180 179 179 181 185 191 199 207 211 213 215 217 219 220 218 214 219 228 236 245
156 157 158 158 158 158 158 158 159 160 162 165 170 174 177 179 180 181 182 183 184 184 184 183 182 182 182 183 185 187 187 185 184 183 184 184 184 185 187 190 192 191 189 187 186 185 184 185 186 186 187 189 192 196 201 209 215 219 220 220 220 220 220 219 221 228 237 245 255
155 156 157 157 158 158 158 158 158 160 162 166 171 175 178 180 182 182 182 183 184 184 184 183 182 182 182 183 185 186 187 185 184 183 184 185 186 188 191 194 195 195 193 191 188 186 185 187 190 193 196 199 202 205 209 214 219 222 222 222 222 222 221 222 227 235 244 253 264
155 156 157 158 159 159 159 159 158 160 162 166 170 174 177 180 181 181 181 182 183 184 184 183 182 182 182 183 185 186 187 186 185 185 185 187 189 192 195 197 198 197 194 191 188 186 187 189 193 197 202 206 207 209 212 215 218 219 219 219 219 220 221 223 229 239 250 260 270
156 157 158 158 159 159 159 159 158 159 162 166 169 172 174 177 178 179 179 180 182 184 184 183 182 181 182 183 185 186 187 187 187 187 187 189 192 195 198 200 199 197 194 190 188 186 188 191 195 199 205 209 209 209 211 215 217 217 216 215 215 217 219 224 234 244 255 265 272
156 157 158 157 158 158 158 158 158 160 162 166 168 170 172 174 176 177 178 179 181 183 183 183 182 182 182 183 184 186 188 189 189 189 190 192 195 198 199 200 199 198 195 192 189 187 189 191 195 199 204 208 208 208 210 215 218 219 217 216 215 215 219 228 240 250 259 266 271
156 156 156 155 155 156 156 157 158 160 164 167 169 170 171 173 175 176 177 179 180 181 183 184 184 183 182 182 184 187 189 190 191 191 192 194 197 199 200 200 200 200 199 197 193 190 190 192 194 198 202 207 211 213 214 215 218 219 220 219 218 218 222 232 244 253 259 263 267
156 155 153 153 154 155 156 157 159 162 165 168 170 171 173 173 174 176 178 179 180 181 183 184 185 184 183 183 185 188 190 191 192 192 194 196 198 200 201 201 202 203 204 203 200 195 192 192 194 198 205 213 222 226 225 220 217 217 218 220 220 220 224 234 245 253 258 260 261
154 153 152 152 154 155 156 158 161 164 166 168 170 173 174 174 175 176 177 179 180 181 183 184 185 185 184 185 187 189 192 193 193 194 195 197 199 201 203 203 204 206 210 212 208 201 195 193 196 202 211 223 233 235 230 221 214 212 214 216 218 219 223 232 244 252 256 255 251
152 152 152 153 155 156 158 160 163 165 167 168 171 173 174 175 176 177 178 179 180 181 183 184 184 184 184 186 188 190 192 194 195 196 197 199 201 203 205 205 206 209 215 218 212 204 198 197 201 208 218 227 231 227 217 209 205 206 208 210 212 214 220 231 242 248 249 246 241
151 152 153 155 157 158 160 161 163 165 167 168 170 172 174 175 176 177 178 178 180 181 183 183 183 183 184 186 188 190 192 194 195 197 199 200 202 204 206 207 208 211 214 214 205 198 196 198 203 211 217 218 210 197 190 190 192 196 200 202 203 207 217 228 235 239 238 235 227
151 152 154 156 158 159 161 161 163 165 166 167 169 170 172 173 174 176 176 178 179 181 181 182 182 182 183 185 186 189 191 193 195 198 200 202 203 205 207 207 207 207 203 197 192 190 193 197 202 207 207 199 189 181 179 179 181 186 190 191 194 203 214 223 226 226 224 217 204
152 152 154 156 158 159 160 161 163 164 165 166 166 167 168 170 172 174 176 177 179 179 178 178 179 180 181 183 185 187 190 193 196 199 201 203 205 206 206 205 204 199 191 186 186 189 193 198 201 201 195 188 183 180 178 173 174 178 181 183 190 202 212 216 214 211 204 191 189
152 152 154 155 157 158 160 161 162 163 163 163 163 164 165 167 169 172 175 176 177 176 174 173 175 177 179 182 184 187 190 194 198 200 202 204 206 206 205 203 199 194 189 188 190 195 199 202 201 198 191 186 185 181 175 168 169 174 179 183 193 202 207 204 196 188 181 181 212
153 153 154 155 156 158 159 160 161 161 161 160 160 161 163 165 168 171 173 174 174 172 170 169 170 173 178 182 186 189 193 196 198 201 203 204 205 204 202 200 196 194 194 196 199 203 204 203 200 195 190 187 186 180 171 166 171 177 184 190 196 200 197 186 177 174 178 197 237
153 154 154 155 156 158 159 160 160 159 158 158 159 160 162 164 167 169 171 171 169 168 168 169 171 175 180 184 189 192 194 196 199 201 202 203 202 200 198 196 195 195 198 203 206 205 201 196 192 188 185 185 185 178 171 170 177 184 189 192 194 191 182 172 170 175 190 219 242
154 154 155 156 157 158 160 160 159 157 157 157 158 160 162 164 166 168 168 169 169 170 172 175 178 180 182 185 188 191 194 195 197 199 200 200 198 196 194 194 194 196 200 205 204 198 191 185 181 178 179 183 183 179 175 176 183 189 191 190 186 179 173 171 173 184 202 224 232
156 156 156 157 158 159 160 159 158 157 156 157 158 161 163 165 166 167 169 172 175 177 179 181 182 183 183 184 186 189 191 193 194 195 195 194 192 191 191 191 192 194 196 197 192 186 180 176 173 173 177 181 182 179 177 180 185 189 189 185 179 174 172 173 178 189 201 208 202
158 158 158 158 158 159 160 159 157 156 156 157 159 161 163 165 168 170 173 177 181 184 185 183 182 181 181 181 183 185 188 190 190 190 189 187 187 188 188 187 187 187 186 183 179 176 173 171 169 171 176 179 179 179 179 181 185 186 183 179 174 172 173 175 181 187 188 182 169
160 160 159 159 159 159 159 158 157 156 157 158 160 162 165 168 172 175 177 180 184 186 186 183 179 178 178 179 181 182 184 185 186 185 183 183 184 184 183 183 181 180 177 174 171 170 169 167 167 169 173 175 176 178 179 181 182 180 177 173 170 170 172 177 181 181 176 165 152
162 162 161 160 159 159 158 158 157 157 158 160 163 166 169 173 176 178 180 182 184 185 184 180 177 175 176 178 179 180 180 181 181 181 180 180 181 180 179 179 177 174 171 168 167 167 166 164 164 165 167 169 173 176 178 179 177 174 171 169 168 170 173 177 178 173 165 153 140
163 163 162 161 160 159 159 159 159 159 161 163 167 170 174 176 178 179 180 182 182 182 181 178 176 175 175 177 178 179 179 178 179 179 178 178 177 176 175 176 175 171 166 164 163 163 162 161 161 162 163 165 169 172 174 173 171 168 167 167 170 173 175 175 171 165 155 144 132
164 163 162 161 161 160 160 160 161 162 164 167 171 175 177 179 179 180 180 181 181 180 178 176 175 174 175 175 177 178 179 178 178 176 175 174 173 173 173 173 171 166 162 160 160 160 160 159 160 160 162 164 166 167 167 166 165 164 166 170 174 176 175 170 164 156 148 138 130
164 163 163 162 162 162 162 163 163 165 167 170 174 177 179 180 180 180 180 181 180 178 176 174 173 173 172 173 175 177 179 179 177 174 171 170 171 172 172 168 164 159 156 155 156 158 159 160 160 161 161 163 163 163 162 161 163 165 170 174 178 177 172 165 158 150 143 137 134
165 164 163 163 163 164 164 165 166 168 171 174 177 179 180 180 180 180 181 180 178 176 174 172 170 169 169 170 172 175 178 179 177 173 170 168 170 171 168 161 156 153 152 153 154 157 161 162 163 162 162 162 163 162 162 162 164 168 173 176 177 174 169 161 153 147 141 139 140
165 164 163 163 164 165 166 167 169 171 174 176 179 180 181 181 181 181 180 178 176 174 172 170 168 167 166 167 169 171 173 174 174 172 169 168 169 168 163 156 152 151 152 153 155 159 162 164 165 165 164 165 166 166 165 165 168 170 172 172 170 168 163 157 151 146 144 143 142
166 165 164 164 164 165 167 170 172 174 176 178 179 181 181 182 182 181 179 176 173 171 170 169 167 166 165 166 168 168 168 168 168 168 168 169 169 166 160 154 152 152 154 155 157 160 162 164 165 166 168 169 170 171 171 170 170 171 170 167 163 160 156 153 149 148 147 145 142
166 165 165 164 164 166 169 172 174 176 177 179 181 182 182 183 182 180 177 174 172 170 170 169 168 167 167 167 166 165 165 164 164 165 166 168 168 164 159 155 154 154 155 156 158 159 161 163 165 167 169 171 172 174 175 175 173 171 168 163 158 154 151 149 148 148 147 144 140
167 166 164 164 165 168 171 174 176 177 178 180 182 183 183 182 181 179 176 174 172 171 170 170 169 170 169 167 165 163 162 162 163 164 166 168 167 164 160 157 156 155 155 156 157 158 160 162 164 167 169 172 174 175 177 176 174 169 164 160 155 151 149 148 148 146 144 141 140
167 165 164 166 168 171 174 176 177 178 180 182 183 183 183 182 180 179 176 175 173 173 172 171 172 171 170 167 164 162 161 161 163 165 167 168 167 164 161 158 157 156 155 156 157 158 160 162 164 166 169 172 175 176 176 175 172 167 162 156 152 149 148 147 146 143 141 140 141
167 166 166 168 171 173 176 177 178 179 181 182 183 183 182 181 180 179 177 176 175 174 174 174 173 172 169 167 164 161 160 161 163 165 167 168 166 164 161 159 158 157 156 157 158 160 161 163 165 167 170 173 175 175 174 172 168 164 159 154 150 148 147 145 142 140 139 140 141
167 168 169 171 173 176 177 178 179 180 182 182 183 182 182 181 180 179 178 177 176 176 175 175 174 172 170 167 163 161 160 161 163 166 168 169 167 164 161 160 159 158 158 159 160 162 163 166 167 169 171 173 174 173 171 168 165 161 157 153 150 147 146 144 143 141 139 138 138
170 172 173 174 176 178 179 179 180 182 182 182 183 183 182 181 180 179 178 178 178 177 176 175 174 172 169 166 162 160 160 162 164 166 168 168 166 164 162 160 159 159 160 161 162 164 166 168 169 171 171 171 171 170 168 166 163 160 157 153 150 148 147 146 144 142 140 137 136
174 176 177 178 179 180 180 181 182 182 183 183 183 183 183 181 180 179 178 178 178 177 176 174 173 171 169 166 162 161 161 163 165 166 167 167 166 165 163 161 161 161 162 163 164 167 168 170 171 171 171 170 169 168 167 165 163 160 156 153 150 149 148 147 145 142 139 136 133
178 179 180 181 182 182 183 183 183 183 183 183 183 183 183 182 181 179 178 177 176 175 173 172 171 170 167 165 163 162 163 164 165 166 167 167 166 166 165 163 163 163 164 165 167 169 170 171 171 171 169 168 167 166 166 165 163 160 157 154 152 151 151 149 146 142 138 134 131
181 182 182 183 184 184 184 184 184 184 184 183 183 183 183 183 181 180 178 176 174 172 171 170 170 169 166 164 163 164 165 165 165 166 166 167 168 168 167 166 165 165 166 167 169 170 171 171 170 169 168 167 166 166 166 165 163 161 159 158 156 155 153 150 146 141 137 133 130
183 184 184 185 185 186 186 186 185 185 185 184 183 183 183 183 182 180 177 175 173 171 170 170 169 168 166 164 164 165 166 167 167 166 167 168 170 170 170 168 166 166 167 168 170 170 170 170 169 168 167 167 167 167 167 166 164 163 163 162 160 157 154 150 145 141 137 133 131
185 186 186 186 186 187 187 187 186 186 185 185 184 183 183 183 181 179 177 174 172 171 171 170 169 167 165 164 164 166 168 169 169 168 168 169 172 174 173 171 168 167 167 168 169 169 168 168 167 167 167 168 169 169 169 169 168 167 167 166 163 159 154 150 146 142 137 134 132
186 187 188 188 187 187 188 187 187 186 186 185 184 184 183 183 181 178 176 174 173 173 173 171 169 167 166 165 166 168 170 171 170 170 170 170 173 175 176 174 170 168 167 167 167 167 167 166 166 166 168 169 171 172 173 172 171 170 170 169 165 159 154 150 147 143 139 136 135
188 189 189 189 189 189 188 188 188 187 186 185 185 184 184 183 181 178 175 173 174 175 175 173 170 167 167 167 169 171 172 172 172 171 171 171 173 175 177 175 172 168 166 165 165 165 166 166 166 166 167 170 173 175 175 176 174 172 169 168 165 160 154 150 148 144 141 140 138
189 190 191 192 192 191 190 189 188 187 187 186 186 185 184 183 181 178 174 173 174 176 177 175 172 170 170 171 173 174 174 173 173 172 172 172 173 174 176 176 173 169 165 164 164 165 166 166 166 166 167 169 173 176 178 179 178 173 169 166 165 161 156 151 149 147 145 143 143
Height
1439 1441 1443 1445 1447 1449 1451 1453 1455 1457 1459 1461 1462 1464 1466 1468 1470 1472 1474 1476 1477 1479 1481 1482 1484 1486 1488 1490 1492 1493 1495 1497 1498 1500 1502 1503 1504 1506 1507 1507 1508 1510 1512 1513 1514 1515 1517 1518 1519 1520 1520 1521 1521 1521 1521 1522 1523 1524 1525 1526 1527 1528 1529 1529 1530 1530 1531 1531 1531
1440 1442 1443 1445 1447 1449 1451 1453 1455 1457 1459 1461 1462 1464 1466 1468 1470 1472 1474 1476 1477 1479 1481 1483 1485 1486 1488 1490 1492 1493 1495 1497 1498 1500 1502 1503 1504 1505 1506 1507 1508 1510 1511 1513 1514 1515 1517 1517 1518 1519 1519 1519 1519 1520 1522 1522 1523 1524 1525 1527 1527 1528 1529 1529 1530 1530 1530 1530 1531
1440 1442 1444 1446 1447 1449 1451 1453 1455 1457 1459 1461 1463 1465 1467 1468 1470 1472 1474 1476 1478 1479 1481 1483 1485 1487 1488 1490 1492 1493 1495 1497 1498 1500 1501 1503 1504 1505 1506 1507 1508 1510 1511 1512 1514 1515 1516 1517 1517 1517 1517 1518 1519 1521 1522 1523 1524 1525 1526 1527 1527 1528 1528 1529 1529 1530 1530 1530 1531
1441 1442 1444 1446 1447 1449 1451 1453 1455 1457 1459 1461 1463 1465 1467 1469 1471 1472 1474 1476 1478 1480 1482 1483 1485 1487 1489 1491 1492 1494 1495 1497 1498 1500 1501 1502 1504 1505 1506 1507 1508 1510 1511 1512 1513 1514 1515 1516 1517 1517 1518 1519 1520 1521 1522 1523 1524 1525 1526 1527 1527 1528 1528 1529 1529 1529 1530 1530 1530
1441 1442 1444 1446 1448 1450 1451 1453 1456 1457 1460 1462 1463 1465 1467 1469 1471 1472 1474 1476 1478 1480 1482 1483 1485 1487 1489 1491 1492 1494 1495 1497 1498 1500 1501 1502 1503 1504 1506 1507 1508 1510 1511 1512 1513 1514 1515 1516 1516 1517 1518 1519 1520 1522 1522 1523 1524 1525 1526 1527 1527 1527 1528 1528 1529 1529 1529 1530 1530
1441 1443 1445 1447 1448 1450 1452 1454 1456 1458 1460 1462 1463 1465 1467 1469 1471 1472 1475 1477 1478 1480 1482 1484 1486 1487 1489 1491 1492 1494 1495 1497 1498 1500 1501 1502 1503 1504 1506 1507 1508 1509 1510 1512 1512 1514 1514 1515 1516 1517 1518 1519 1520 1521 1522 1523 1524 1525 1525 1526 1527 1527 1528 1528 1529 1529 1529 1529 1530
1441 1443 1445 1447 1449 1450 1452 1454 1456 1458 1460 1462 1463 1465 1467 1469 1471 1473 1475 1477 1479 1481 1482 1484 1486 1487 1489 1491 1492 1493 1495 1496 1498 1499 1501 1502 1503 1504 1505 1507 1508 1509 1510 1511 1512 1513 1514 1515 1516 1517 1518 1519 1520 1521 1522 1522 1523 1524 1525 1526 1526 1527 1527 1528 1528 1529 1529 1529 1529
1442 1444 1446 1447 1449 1451 1452 1454 1456 1458 1460 1462 1464 1465 1467 1469 1471 1473 1475 1477 1479 1481 1482 1484 1486 1487 1489 1490 1492 1493 1494 1496 1497 1499 1500 1501 1502 1503 1505 1506 1507 1508 1509 1510 1512 1513 1514 1515 1516 1517 1518 1519 1519 1520 1521 1522 1523 1523 1524 1525 1526 1526 1527 1527 1528 1528 1528 1528 1528
1442 1444 1446 1448 1450 1451 1452 1454 1456 1458 1460 1462 1464 1466 1467 1469 1471 1473 1475 1477 1479 1481 1482 1484 1486 1487 1489 1490 1491 1492 1494 1496 1497 1498 1499 1501 1502 1503 1504 1505 1506 1507 1509 1510 1512 1513 1514 1515 1516 1517 1518 1518 1519 1520 1520 1521 1522 1523 1524 1524 1525 1526 1527 1527 1527 1527 1527 1528 1528
1442 1445 1447 1448 1450 1452 1453 1454 1456 1458 1460 1462 1464 1466 1468 1470 1472 1474 1476 1477 1479 1481 1482 1484 1485 1487 1488 1490 1491 1492 1494 1495 1496 1497 1499 1500 1501 1502 1503 1504 1506 1507 1508 1510 1511 1512 1513 1515 1516 1517 1517 1518 1519 1519 1520 1521 1522 1522 1523 1524 1524 1525 1526 1527 1527 1527 1527 1527 1527
1443 1445 1447 1449 1450 1452 1453 1455 1456 1458 1460 1462 1464 1466 1468 1470 1472 1474 1476 1477 1479 1481 1482 1483 1485 1487 1488 1489 1491 1492 1493 1495 1496 1497 1498 1499 1500 1502 1503 1504 1506 1507 1508 1509 1510 1512 1513 1514 1515 1516 1517 1518 1518 1519 1519 1520 1521 1522 1523 1523 1524 1525 1526 1526 1526 1527 1527 1527 1527
1443 1445 1447 1449 1451 1452 1453 1455 1456 1458 1460 1462 1464 1466 1468 1470 1472 1474 1476 1477 1479 1480 1482 1483 1485 1486 1487 1489 1490 1492 1493 1494 1495 1496 1497 1498 1499 1501 1502 1504 1506 1507 1508 1509 1510 1511 1512 1514 1515 1516 1517 1517 1518 1518 1519 1520 1521 1522 1522 1523 1523 1524 1525 1525 1526 1526 1527 1527 1527
1444 1446 1448 1449 1451 1452 1454 1455 1456 1458 1460 1462 1464 1466 1468 1470 1472 1474 1475 1477 1478 1480 1482 1483 1484 1486 1487 1488 1489 1491 1492 1493 1494 1495 1496 1497 1499 1500 1502 1504 1506 1507 1507 1508 1510 1511 1512 1513 1514 1515 1516 1517 1517 1518 1519 1520 1521 1522 1522 1523 1523 1524 1525 1525 1526 1526 1526 1527 1527
1444 1446 1448 1450 1452 1453 1454 1455 1457 1458 1460 1462 1464 1466 1468 1470 1472 1474 1475 1477 1478 1480 1481 1483 1484 1486 1487 1487 1489 1490 1491 1492 1493 1494 1495 1497 1498 1500 1502 1504 1505 1506 1507 1508 1509 1511 1512 1513 1514 1515 1516 1516 1517 1518 1519 1520 1521 1521 1522 1523 1523 1524 1524 1525 1525 1526 1526 1526 1527
1445 1447 1448 1450 1452 1453 1454 1455 1457 1458 1460 1462 1464 1466 1468 1470 1472 1473 1475 1477 1478 1479 1481 1482 1484 1485 1486 1487 1488 1489 1490 1491 1492 1493 1495 1497 1498 1500 1502 1504 1505 1506 1507 1508 1509 1510 1511 1512 1514 1514 1515 1516 1517 1517 1518 1519 1520 1521 1522 1522 1523 1523 1524 1525 1525 1526 1526 1526 1526
1445 1447 1449 1451 1452 1453 1455 1456 1457 1459 1461 1462 1464 1466 1468 1470 1472 1473 1475 1477 1478 1479 1480 1482 1482 1484 1485 1486 1487 1488 1489 1491 1492 1493 1495 1496 1498 1500 1502 1503 1504 1506 1507 1508 1509 1510 1511 1512 1513 1514 1515 1516 1517 1517 1518 1519 1520 1521 1522 1522 1523 1523 1524 1524 1525 1525 1526 1526 1526
1445 1447 1449 1451 1452 1453 1455 1456 1458 1459 1461 1463 1465 1466 1468 1470 1472 1473 1475 1476 1477 1478 1479 1480 1481 1482 1484 1486 1487 1488 1489 1491 1492 1493 1495 1497 1498 1500 1502 1503 1504 1505 1507 1507 1508 1509 1511 1512 1512 1513 1514 1515 1516 1517 1518 1519 1520 1520 1521 1522 1522 1523 1524 1524 1525 1525 1525 1525 1526
1446 1447 1449 1451 1452 1454 1455 1457 1458 1460 1462 1463 1465 1467 1468 1470 1472 1473 1475 1476 1476 1477 1478 1479 1481 1482 1484 1486 1487 1488 1490 1491 1492 1494 1495 1497 1499 1500 1501 1502 1504 1505 1506 1507 1508 1509 1510 1511 1512 1513 1514 1515 1516 1517 1518 1519 1520 1520 1521 1522 1522 1523 1524 1524 1524 1525 1525 1525 1525
1446 1448 1450 1452 1453 1454 1456 1457 1459 1461 1462 1464 1465 1467 1468 1470 1471 1472 1473 1475 1475 1476 1477 1479 1481 1483 1484 1486 1487 1489 1490 1491 1493 1494 1496 1497 1499 1500 1501 1502 1504 1505 1506 1507 1508 1509 1510 1511 1512 1513 1514 1515 1516 1517 1518 1519 1519 1520 1521 1522 1522 1523 1523 1524 1524 1524 1525 1525 1525
1446 1448 1450 1452 1453 1455 1456 1458 1459 1461 1462 1464 1466 1467 1468 1469 1470 1471 1472 1474 1475 1477 1478 1480 1482 1483 1485 1486 1487 1489 1490 1492 1493 1494 1496 1497 1499 1500 1501 1502 1504 1505 1506 1507 1507 1508 1510 1511 1512 1513 1514 1515 1516 1517 1518 1519 1519 1520 1521 1522 1522 1523 1523 1524 1524 1524 1525 1525 1525
1447 1448 1450 1452 1454 1455 1457 1458 1460 1461 1463 1464 1466 1467 1468 1469 1470 1471 1472 1474 1476 1477 1479 1481 1482 1483 1484 1486 1487 1488 1490 1492 1493 1495 1496 1497 1499 1500 1501 1502 1503 1504 1505 1506 1507 1508 1509 1511 1512 1513 1514 1515 1516 1517 1518 1518 1519 1520 1521 1522 1522 1522 1523 1523 1524 1524 1525 1525 1525
1447 1449 1451 1453 1454 1456 1457 1458 1460 1461 1463 1464 1465 1466 1467 1468 1470 1472 1473 1475 1476 1478 1480 1481 1482 1483 1484 1486 1487 1488 1490 1492 1493 1495 1496 1497 1499 1500 1502 1502 1503 1504 1505 1506 1507 1508 1510 1511 1512 1513 1514 1515 1516 1517 1518 1519 1519 1520 1521 1522 1522 1522 1523 1523 1524 1524 1525 1525 1525
1447 1449 1451 1453 1455 1456 1457 1458 1460 1461 1463 1464 1465 1466 1467 1468 1470 1472 1474 1475 1477 1478 1480 1481 1482 1484 1485 1486 1487 1489 1490 1492 1493 1495 1496 1498 1499 1500 1502 1502 1503 1504 1505 1506 1507 1509 1510 1511 1512 1513 1514 1515 1516 1517 1518 1519 1520 1520 1521 1521 1522 1522 1523 1523 1524 1524 1524 1525 1525
1448 1450 1452 1453 1455 1456 1457 1458 1460 1461 1462 1463 1465 1466 1467 1469 1471 1472 1474 1475 1477 1478 1480 1481 1483 1484 1486 1487 1488 1490 1491 1492 1493 1495 1497 1498 1499 1500 1502 1502 1504 1505 1506 1507 1508 1509 1510 1511 1512 1513 1514 1515 1516 1517 1518 1519 1520 1520 1521 1521 1522 1522 1523 1523 1523 1524 1524 1524 1525
1448 1450 1452 1453 1455 1456 1457 1458 1460 1461 1462 1463 1465 1466 1468 1469 1471 1472 1474 1476 1477 1479 1480 1482 1483 1485 1486 1487 1489 1490 1492 1492 1494 1495 1496 1498 1499 1501 1502 1503 1504 1505 1506 1507 1509 1510 1511 1512 1512 1513 1514 1515 1516 1517 1518 1519 1519 1520 1521 1521 1522 1522 1522 1523 1523 1523 1524 1524 1524
1448 1450 1452 1453 1455 1456 1457 1458 1459 1461 1462 1464 1465 1467 1468 1470 1471 1472 1474 1476 1477 1479 1481 1482 1483 1485 1486 1488 1489 1490 1492 1493 1494 1495 1497 1498 1499 1501 1502 1503 1504 1505 1507 1508 1509 1510 1511 1512 1513 1514 1514 1515 1516 1517 1517 1518 1519 1520 1520 1521 1522 1522 1522 1522 1523 1523 1524 1524 1524
1448 1450 1452 1454 1455 1456 1457 1458 1459 1461 1462 1464 1465 1467 1468 1470 1471 1473 1474 1476 1478 1479 1481 1482 1484 1485 1487 1488 1489 1490 1492 1493 1494 1496 1497 1498 1500 1501 1502 1503 1504 1506 1507 1508 1509 1510 1511 1512 1513 1514 1515 1516 1516 1517 1517 1518 1519 1520 1520 1521 1521 1522 1522 1522 1522 1523 1523 1524 1524
1448 1450 1452 1454 1455 1456 1457 1458 1459 1461 1463 1464 1466 1467 1468 1470 1472 1473 1475 1477 1478 1480 1481 1482 1484 1485 1487 1488 1489 1490 1492 1493 1494 1496 1497 1499 1500 1501 1502 1503 1505 1506 1507 1508 1509 1510 1512 1512 1513 1514 1515 1516 1517 1517 1518 1518 1519 1519 1520 1520 1521 1521 1522 1522 1523 1523 1523 1524 1524
1449 1451 1452 1454 1455 1456 1457 1458 1460 1461 1463 1464 1466 1467 1469 1470 1472 1474 1476 1477 1478 1480 1481 1482 1484 1485 1487 1488 1489 1491 1492 1493 1495 1496 1498 1499 1500 1502 1503 1504 1505 1506 1507 1508 1509 1511 1512 1513 1514 1515 1515 1516 1517 1517 1517 1518 1518 1519 1519 1520 1521 1521 1522 1522 1523 1523 1523 1524 1524
1449 1451 1452 1454 1455 1456 1457 1458 1460 1461 1463 1464 1466 1467 1469 1471 1472 1474 1476 1477 1479 1480 1481 1482 1484 1485 1487 1488 1489 1491 1492 1493 1495 1497 1498 1499 1501 1502 1503 1504 1505 1506 1507 1508 1510 1511 1512 1513 1514 1515 1515 1516 1517 1517 1517 1518 1518 1519 1519 1520 1520 1521 1522 1522 1523 1523 1523 1524 1524
1449 1451 1452 1453 1454 1456 1457 1458 1460 1461 1462 1464 1466 1467 1469 1471 1473 1474 1476 1477 1479 1480 1482 1483 1484 1485 1487 1488 1489 1491 1492 1494 1495 1497 1498 1499 1501 1502 1503 1504 1505 1506 1507 1509 1510 1511 1512 1513 1514 1514 1515 1516 1517 1517 1517 1518 1518 1519 1519 1520 1520 1521 1522 1522 1523 1523 1524 1524 1524
1449 1451 1452 1453 1454 1456 1457 1458 1460 1461 1462 1464 1466 1468 1469 1471 1473 1475 1476 1477 1479 1480 1482 1483 1484 1486 1487 1488 1490 1491 1492 1494 1495 1497 1498 1499 1501 1502 1503 1504 1505 1506 1507 1509 1510 1511 1512 1513 1513 1514 1515 1516 1516 1517 1517 1518 1518 1519 1519 1520 1521 1521 1522 1522 1523 1523 1524 1524 1525
1449 1450 1451 1453 1454 1456 1457 1458 1460 1461 1462 1464 1466 1468 1469 1471 1473 1475 1476 1478 1479 1481 1482 1483 1485 1486 1487 1488 1490 1492 1493 1494 1496 1497 1498 1499 1501 1502 1503 1504 1505 1506 1507 1509 1510 1511 1512 1512 1513 1514 1515 1515 1516 1517 1517 1518 1518 1519 1519 1520 1521 1521 1522 1523 1523 1523 1524 1524 1525
1448 1449 1451 1453 1454 1456 1457 1458 1459 1461 1462 1464 1466 1468 1470 1471 1473 1475 1476 1478 1480 1481 1483 1484 1486 1487 1488 1489 1491 1492 1493 1495 1496 1497 1498 1500 1501 1502 1503 1504 1505 1506 1507 1509 1510 1511 1512 1512 1513 1514 1515 1515 1516 1517 1517 1518 1518 1519 1519 1520 1521 1522 1522 1523 1523 1524 1524 1525 1525
1447 1449 1451 1452 1454 1455 1457 1458 1459 1461 1462 1464 1466 1468 1470 1472 1473 1475 1476 1478 1480 1482 1483 1485 1486 1487 1489 1490 1492 1492 1494 1495 1496 1497 1499 1500 1501 1502 1503 1504 1505 1507 1507 1509 1510 1511 1512 1512 1513 1514 1515 1515 1516 1517 1517 1518 1519 1519 1520 1520 1521 1522 1522 1523 1523 1524 1524 1525 1525
1447 1448 1450 1452 1454 1455 1456 1457 1459 1461 1462 1464 1466 1468 1470 1472 1474 1475 1477 1478 1480 1482 1483 1485 1486 1487 1489 1491 1492 1493 1494 1495 1497 1498 1499 1500 1502 1502 1503 1504 1505 1507 1508 1509 1510 1511 1512 1513 1513 1514 1515 1515 1516 1517 1517 1518 1519 1519 1520 1520 1521 1522 1522 1523 1523 1524 1524 1525 1525
1447 1448 1450 1452 1453 1455 1456 1457 1459 1461 1462 1464 1466 1468 1470 1472 1474 1475 1477 1478 1480 1482 1483 1485 1486 1487 1489 1490 1492 1494 1495 1496 1497 1498 1499 1501 1502 1502 1503 1504 1505 1507 1508 1509 1510 1511 1512 1513 1514 1514 1515 1515 1516 1517 1517 1518 1519 1519 1520 1520 1521 1522 1522 1523 1523 1524 1524 1525 1525
1447 1448 1449 1451 1453 1454 1456 1457 1459 1461 1462 1464 1466 1468 1470 1472 1474 1475 1477 1479 1480 1482 1483 1485 1486 1488 1489 1491 1492 1494 1496 1497 1498 1498 1499 1501 1502 1503 1504 1505 1506 1507 1508 1509 1510 1511 1512 1513 1514 1515 1515 1516 1516 1517 1517 1518 1519 1519 1520 1520 1521 1522 1522 1523 1524 1524 1524 1525 1525
1447 1448 1450 1451 1453 1454 1456 1457 1459 1461 1462 1464 1466 1468 1470 1472 1474 1476 1477 1479 1481 1482 1483 1485 1487 1488 1490 1491 1493 1494 1496 1497 1498 1499 1500 1501 1502 1503 1504 1505 1506 1507 1508 1509 1510 1512 1512 1513 1514 1515 1516 1516 1517 1517 1518 1518 1519 1519 1520 1520 1521 1522 1522 1523 1524 1524 1524 1525 1525
1448 1449 1450 1452 1453 1454 1456 1458 1459 1461 1463 1465 1466 1468 1470 1472 1474 1476 1477 1479 1481 1482 1484 1485 1487 1488 1490 1492 1493 1494 1495 1497 1498 1499 1500 1501 1502 1504 1505 1506 1507 1507 1508 1510 1511 1512 1512 1513 1514 1515 1516 1516 1517 1517 1518 1518 1519 1519 1520 1521 1521 1522 1522 1523 1524 1524 1524 1525 1525
1448 1449 1451 1452 1454 1455 1456 1458 1460 1462 1463 1465 1467 1468 1470 1472 1474 1476 1477 1479 1480 1482 1484 1486 1487 1489 1491 1492 1493 1494 1495 1496 1497 1499 1500 1501 1502 1504 1505 1506 1507 1508 1509 1510 1511 1512 1513 1513 1514 1515 1516 1517 1517 1518 1518 1519 1519 1520 1520 1521 1522 1522 1522 1523 1523 1524 1524 1525 1525